Regional Weather Roundup
Issued by NWS

Home | Current Version | Previous Version | Graphics & Text | Print | Product List | Glossary On
Versions: 1 2 3 4 5 6 7 8 9 10 11 12 13 14 15 16 17 18 19 20 21 22 23 24 25 26 27 28 29 30 31 32 33 34 35 36 37 38 39 40 41 42 43 44 45 46 47 48 49 50
891
ASUS43 KMKX 241100
RWRWI

WISCONSIN REGIONAL WEATHER ROUNDUP
NATIONAL WEATHER SERVICE MILWAUKEE/SULLIVAN WI
600 AM CDT TUE MAY 24 2016

NOTE: "FAIR" INDICATES FEW OR NO CLOUDS BELOW 12,000 FEET WITH NO
SIGNIFICANT WEATHER AND/OR OBSTRUCTIONS TO VISIBILITY.

WIZ001-002-006>008-014>016-023>028-241200-
NORTHWEST WISCONSIN

CITY           SKY/WX    TMP DP  RH WIND       PRES   REMARKS
SUPERIOR ARPT  CLOUDY    58  58 100 CALM      29.81S
ASHLAND        TSTM      59  59 100 SW5       29.85R VSB 1
HAYWARD        CLOUDY    62  59  90 CALM      29.84R
SIREN          CLOUDY    60  59  97 S5        29.82R
CUMBERLAND     CLOUDY    61  59  94 S6        29.84R
RICE LAKE      CLOUDY    62  59  90 SE5       29.85R
CHETEK         CLOUDY    61  61  99 SE5       29.84S
LADYSMITH      CLOUDY    63  60  92 SE3       29.87S
EAU CLAIRE     NOT AVBL
MENOMONIE      CLOUDY    62  62  99 CALM      29.84R
NEW RICHMOND   CLOUDY    64  61  91 S8        29.83R
OSCEOLA        CLOUDY    63  63 100 S3        29.85R
$$

WIZ003>005-009-010-017-018-241200-
NORTH CENTRAL WISCONSIN

CITY           SKY/WX    TMP DP  RH WIND       PRES   REMARKS
MANITOWISH WTR RAIN      60  60 100 S5        29.88R
ARBOR VITAE    RAIN      62  60  94 S7        29.89R
WOODRUFF       RAIN      62  60  94 S7        29.89R
RHINELANDER    LGT RAIN  62  59  90 SW5       29.91R FOG
EAGLE RIVER    RAIN      60  60  97 CALM      29.89S
LAND O LAKES   LGT RAIN  59  57  94 S3        29.90S
PHILLIPS       MOCLDY    61  61 100 SE3       29.86F
TOMAHAWK       LGT RAIN  60  59  96 CALM      29.90R
MEDFORD        CLOUDY    60  60 100 SE3       29.88S
MERRILL        CLOUDY    60  56  88 CALM      29.90R
$$

WIZ029-030-035-036-043>047-241200-
CENTRAL WISCONSIN

CITY           SKY/WX    TMP DP  RH WIND       PRES   REMARKS
WAUSAU         CLOUDY    61  51  70 SE3       29.88R
MOSINEE        CLEAR     57  52  82 CALM      29.91R
MARSHFIELD     CLOUDY    61  55  81 SE5       29.88R
STEVENS POINT  CLOUDY    55  49  81 CALM      29.89S
WAUPACA        PTCLDY    55  49  81 CALM      29.90R
WAUTOMA        CLOUDY    50  48  93 CALM      29.91R
WISC RAPIDS    TSTM      60  51  72 CALM      29.91R
CAMP DOUGLAS   NOT AVBL
$$

WIZ011>013-019>022-031-037>040-048>050-241200-
NORTHEAST WISCONSIN

CITY           SKY/WX    TMP DP  RH WIND       PRES   REMARKS
ANTIGO         CLOUDY    59  54  82 CALM      29.91S
SHAWANO        CLOUDY    58  51  76 CALM      29.90R
OCONTO         MOCLDY    51  51 100 CALM      29.88S
STURGEON BAY   NOT AVBL
GREEN BAY      PTCLDY    56  46  69 S5        29.90R
MANITOWOC      NOT AVBL
APPLETON       PTCLDY    57  45  62 S5        29.89S
CLINTONVILLE   CLOUDY    55  48  76 CALM      29.89S
OSHKOSH        CLOUDY    55  46  71 S7        29.90S
$$

WIZ032>034-041-042-053>061-241200-
SOUTHWEST WISCONSIN

CITY           SKY/WX    TMP DP  RH WIND       PRES   REMARKS
LA CROSSE      CLOUDY    66  56  70 S8        29.86R
SPARTA         CLOUDY    59  56  88 S3        29.88R
VIROQUA        CLOUDY    60  50  69 SE3       29.90R
BOSCOBEL       CLOUDY    60  55  83 CALM      29.90R
PRAIRIE DU CHI CLOUDY    68  52  56 S3        29.89R
PLATTEVILLE    MOCLDY    64  51  62 S7        29.92S
$$

WIZ056-057-062-063-064-067-068-241200-
SOUTH CENTRAL WISCONSIN

CITY           SKY/WX    TMP DP  RH WIND       PRES   REMARKS
REEDSBURG      MOCLDY    64  50  61 CALM      29.89S
BARABOO/DELLS  MOCLDY    63  49  59 S8        29.90S
LONE ROCK      NOT AVBL
MINERAL POINT  PTCLDY    61  48  63 SE5       29.92S
MADISON        MOCLDY    62  49  62 S7        29.93R
MIDDLETON      CLEAR     63  47  57 S3        29.93R
WATERTOWN      CLOUDY    57  47  70 S3        29.93S
MONROE         PTCLDY    59  46  63 S7        29.94R
JANESVILLE     PTCLDY    59  48  67 S3        29.94R
$$

WIZ051-052-058>065-066-070>072-241200-
SOUTHEAST WISCONSIN

CITY           SKY/WX    TMP DP  RH WIND       PRES   REMARKS
MILWAUKEE      MOCLDY    61  46  57 SW8       29.95R
WAUKESHA       CLEAR     57  45  62 S6        29.96R
MILWAUKEE/TIMM CLOUDY    55  43  62 S3        29.95S
RACINE         CLOUDY    62  46  55 SW8       29.97R
BURLINGTON     CLOUDY    52  46  79 CALM      29.95S
KENOSHA        CLOUDY    59  47  64 SW6       29.96S
FOND DU LAC    MOCLDY    56  45  66 S6        29.92R
SHEBOYGAN      CLOUDY    52  42  69 S5        29.93R
WEST BEND      CLOUDY    52  43  71 CALM      29.94R
JUNEAU         CLOUDY    58  46  65 S6        29.94R
$$

LSZ147-162-241200-
LAKE SUPERIOR

STATION/POSITION TIME  TEMP    WIND        PRES    WAVE
                       AIR SEA DIR/SP/G            HT/PER
                 (UTC) (F)     (DEG/KT/KT) (MB)    (FT/S)
W MID LAKE BUOY  0950   47 38  250/  4/  4 1010.1F   1
DEVILS ISLAND    1000   60      CALM  /  1 1010.0F
SAXON HARBOR     1000   54     310/  3/  5 1010.2R
$$

LMZ867-665-643>646-241200-
LAKE MICHIGAN

STATION/POSITION TIME  TEMP    WIND        PRES    WAVE
                       AIR SEA DIR/SP/G            HT/PER
                 (UTC) (F)     (DEG/KT/KT) (MB)    (FT/S)
CHAMBERS ISLAND  1000   62     190/  5/ 10 1011.9
N MID LAKE BUOY  0950   48 44  190/ 12/ 14 1011.7R   2/ 4
NORTHPORT PIER   1000   58     180/  3/  8 1011.5S
SISTER BAY       1004   62     170/  8/ 11   N/A
ALGOMA LAKESHORE 0901          220/ 10/ 11   N/A
KEWAUNEE LAKESHO 1000   53     150/  4/  5 1011.9R
SHEBOYGAN LAKESH 1000   56     190/  5/  5 1013.6R
PORT WASHINGTON  1000   54     240/  1/  3 1014.2R
S MID LAKE BUOY  0950   53 48  170/ 10/ 12 1014.3R   1
KENOSHA   LAKESH 1000   65     230/  9/ 12 1014.2R
$$

TC  - TEMPERATURE IN CELSIUS
VSB - VISIBILITY IN STATUTE MILES
WCI - WIND CHILL INDEX
HX  - HEAT INDEX





USA.gov is the U.S. government's official web portal to all federal, state and local government web resources and services.